N393X LFCY-EGAD

Flight info

Callsign N393X
Flight time 2h 19m
Altitude 24000
Route ROYAN A25 NTS UY110 REN A25 SKESO DCT TACQI DCT ENJEX DCT DIMUS DCT ABDOX DCT ELBON DCT ROTEV DCT PEPOD DCT RINGA DCT GOTNA
Aircraft MU2/L-SDGIRY/LB1

Departure

Time 2026-05-09 11:00
Airport Royan-Médis Airport (LFCY)

Arrival

Time 2026-05-09 13:19
Airport Newtownards Airport (EGAD)
Time Latitude Longitude Altitude Speed Heading
2026-05-09 10:53 45.63290 -0.97566 45 ft 0 kts 186°
2026-05-09 10:56 45.63288 -0.97566 43 ft 0 kts 164°
2026-05-09 10:56 45.63274 -0.97530 46 ft 8 kts 114°
2026-05-09 10:56 45.63260 -0.97509 49 ft 2 kts 180°
2026-05-09 10:56 45.63223 -0.97517 49 ft 10 kts 190°
2026-05-09 10:57 45.63150 -0.97536 50 ft 13 kts 191°
2026-05-09 10:57 45.63052 -0.97520 52 ft 14 kts 81°
2026-05-09 10:57 45.63073 -0.97332 54 ft 22 kts 83°
2026-05-09 10:57 45.63060 -0.97219 63 ft 17 kts 103°
2026-05-09 10:58 45.63030 -0.97008 67 ft 23 kts 98°
2026-05-09 10:58 45.63018 -0.96893 68 ft 5 kts 59°
2026-05-09 10:58 45.63027 -0.96900 67 ft 2 kts 281°
2026-05-09 10:58 45.63032 -0.96935 61 ft 17 kts 281°
2026-05-09 10:59 45.63080 -0.97287 59 ft 57 kts 282°
2026-05-09 10:59 45.63198 -0.98044 30 ft 98 kts 285°
2026-05-09 10:59 45.63393 -0.98956 233 ft 98 kts 282°
2026-05-09 10:59 45.63597 -0.99975 382 ft 118 kts 282°
2026-05-09 11:00 45.63822 -1.01290 532 ft 151 kts 279°
2026-05-09 11:00 45.64028 -1.02805 1086 ft 164 kts 277°
2026-05-09 11:00 45.64203 -1.04530 1636 ft 188 kts 275°
2026-05-09 11:00 45.64380 -1.06486 2200 ft 208 kts 275°
2026-05-09 11:01 45.64693 -1.08572 2821 ft 224 kts 286°
2026-05-09 11:01 45.65342 -1.10672 3449 ft 238 kts 298°
2026-05-09 11:01 45.66310 -1.12633 4042 ft 242 kts 310°
2026-05-09 11:01 45.67525 -1.14278 4773 ft 237 kts 322°
2026-05-09 11:02 45.68852 -1.15458 5614 ft 219 kts 334°
2026-05-09 11:02 45.70218 -1.16157 6465 ft 199 kts 347°
2026-05-09 11:02 45.71520 -1.16367 7289 ft 176 kts
2026-05-09 11:02 45.72645 -1.16134 8067 ft 146 kts 19°
2026-05-09 11:03 45.73504 -1.15563 8532 ft 130 kts 37°
2026-05-09 11:03 45.74222 -1.14779 8692 ft 131 kts 36°
2026-05-09 11:03 45.75096 -1.14543 8875 ft 128 kts 357°
2026-05-09 11:03 45.75977 -1.14432 9053 ft 130 kts
2026-05-09 11:04 45.76992 -1.14272 9064 ft 166 kts
2026-05-09 11:04 45.78283 -1.14069 9084 ft 207 kts
2026-05-09 11:04 45.79841 -1.13803 9084 ft 242 kts
2026-05-09 11:04 45.81607 -1.13435 9088 ft 269 kts
2026-05-09 11:05 45.83452 -1.13047 9379 ft 273 kts
2026-05-09 11:05 45.85346 -1.12691 9713 ft 275 kts
2026-05-09 11:05 45.87247 -1.12633 10154 ft 272 kts 359°
2026-05-09 11:05 45.89133 -1.12680 10577 ft 270 kts 358°
2026-05-09 11:06 45.91016 -1.12742 11001 ft 270 kts 358°
2026-05-09 11:06 45.92889 -1.12808 11424 ft 270 kts 358°
2026-05-09 11:06 45.94767 -1.12874 11846 ft 270 kts 358°
2026-05-09 11:06 45.96640 -1.13072 12275 ft 270 kts 352°
2026-05-09 11:07 45.98502 -1.13423 12701 ft 270 kts 351°
2026-05-09 11:07 46.00367 -1.13802 13133 ft 270 kts 351°
2026-05-09 11:07 46.02228 -1.14183 13566 ft 270 kts 351°
2026-05-09 11:07 46.04093 -1.14562 13973 ft 270 kts 351°
2026-05-09 11:08 46.05932 -1.14941 14355 ft 270 kts 349°
2026-05-09 11:08 46.07753 -1.15571 14748 ft 268 kts 342°
2026-05-09 11:08 46.09532 -1.16347 15143 ft 265 kts 341°
2026-05-09 11:08 46.11292 -1.17137 15518 ft 264 kts 341°
2026-05-09 11:09 46.13043 -1.17927 15892 ft 263 kts 341°
2026-05-09 11:09 46.14790 -1.18715 16273 ft 263 kts 341°
2026-05-09 11:09 46.16536 -1.19498 16658 ft 263 kts 341°
2026-05-09 11:09 46.18284 -1.20279 17047 ft 262 kts 340°
2026-05-09 11:10 46.20003 -1.21158 17427 ft 262 kts 336°
2026-05-09 11:10 46.21697 -1.22118 17800 ft 262 kts 336°
2026-05-09 11:10 46.23390 -1.23092 18178 ft 262 kts 336°
2026-05-09 11:10 46.25080 -1.24061 18509 ft 262 kts 336°
2026-05-09 11:11 46.26772 -1.25028 18834 ft 261 kts 336°
2026-05-09 11:11 46.28465 -1.25991 19166 ft 261 kts 336°
2026-05-09 11:11 46.30155 -1.26949 19504 ft 261 kts 336°
2026-05-09 11:11 46.31845 -1.27902 19843 ft 260 kts 336°
2026-05-09 11:12 46.33536 -1.28853 20182 ft 260 kts 336°
2026-05-09 11:12 46.35218 -1.29796 20527 ft 259 kts 336°
2026-05-09 11:12 46.36902 -1.30737 20879 ft 259 kts 336°
2026-05-09 11:12 46.38579 -1.31671 21232 ft 258 kts 336°
2026-05-09 11:13 46.40256 -1.32600 21593 ft 257 kts 336°
2026-05-09 11:13 46.41908 -1.33510 21950 ft 257 kts 336°
2026-05-09 11:13 46.43579 -1.34425 22317 ft 256 kts 336°
2026-05-09 11:13 46.45246 -1.35331 22683 ft 255 kts 336°
2026-05-09 11:14 46.46911 -1.36234 23015 ft 257 kts 336°
2026-05-09 11:14 46.48593 -1.37150 23287 ft 260 kts 335°
2026-05-09 11:14 46.50299 -1.38074 23550 ft 262 kts 336°
2026-05-09 11:14 46.52010 -1.39000 23781 ft 263 kts 336°
2026-05-09 11:15 46.53732 -1.39925 24015 ft 264 kts 336°
2026-05-09 11:15 46.55455 -1.40846 24246 ft 264 kts 336°
2026-05-09 11:15 46.57180 -1.41764 24483 ft 264 kts 336°
2026-05-09 11:15 46.58900 -1.42672 24719 ft 263 kts 335°
2026-05-09 11:16 46.60625 -1.43577 24960 ft 263 kts 336°
2026-05-09 11:16 46.62348 -1.44477 25195 ft 263 kts 335°
2026-05-09 11:16 46.64071 -1.45366 25436 ft 263 kts 336°
2026-05-09 11:16 46.65780 -1.46300 25681 ft 261 kts 332°
2026-05-09 11:17 46.67426 -1.47335 25923 ft 260 kts 331°
2026-05-09 11:17 46.69079 -1.48398 26170 ft 260 kts 331°
2026-05-09 11:17 46.70733 -1.49464 26421 ft 259 kts 329°
2026-05-09 11:17 46.72329 -1.50639 26647 ft 258 kts 326°
2026-05-09 11:18 46.73923 -1.51878 26846 ft 258 kts 326°
2026-05-09 11:18 46.75506 -1.53111 27060 ft 258 kts 326°
2026-05-09 11:18 46.77093 -1.54338 27264 ft 258 kts 326°
2026-05-09 11:18 46.78681 -1.55559 27472 ft 258 kts 326°
2026-05-09 11:19 46.80266 -1.56772 27678 ft 257 kts 326°
2026-05-09 11:19 46.81876 -1.58004 27593 ft 266 kts 326°
2026-05-09 11:19 46.83523 -1.59266 27685 ft 266 kts 326°
2026-05-09 11:19 46.85138 -1.60542 27843 ft 262 kts 324°
2026-05-09 11:20 46.86710 -1.61865 27946 ft 261 kts 323°
2026-05-09 11:20 46.88285 -1.63211 27951 ft 264 kts 323°
2026-05-09 11:20 46.89880 -1.64573 27966 ft 267 kts 323°
2026-05-09 11:20 46.91492 -1.65952 27966 ft 269 kts 323°
2026-05-09 11:21 46.93116 -1.67347 27966 ft 272 kts 323°
2026-05-09 11:21 46.94758 -1.68759 27966 ft 275 kts 323°
2026-05-09 11:21 46.96412 -1.70181 27968 ft 276 kts 323°
2026-05-09 11:21 46.98072 -1.71606 27969 ft 278 kts 323°
2026-05-09 11:22 46.99743 -1.73043 27969 ft 279 kts 323°
2026-05-09 11:22 47.01419 -1.74485 27964 ft 280 kts 323°
2026-05-09 11:22 47.03101 -1.75929 27974 ft 280 kts 323°
2026-05-09 11:22 47.04784 -1.77375 27973 ft 281 kts 323°
2026-05-09 11:23 47.06469 -1.78822 27972 ft 281 kts 323°
2026-05-09 11:23 47.08160 -1.80263 27970 ft 282 kts 324°
2026-05-09 11:23 47.09910 -1.81579 27968 ft 284 kts 327°
2026-05-09 11:23 47.11693 -1.82840 27965 ft 285 kts 328°
2026-05-09 11:24 47.13463 -1.84075 27967 ft 285 kts 328°
2026-05-09 11:24 47.15262 -1.85317 27970 ft 286 kts 329°
2026-05-09 11:24 47.17095 -1.86477 27963 ft 287 kts 330°
2026-05-09 11:24 47.18915 -1.87584 27965 ft 280 kts 330°
2026-05-09 11:25 47.20704 -1.88661 27960 ft 276 kts 331°
2026-05-09 11:25 47.22471 -1.89716 27938 ft 272 kts 330°
2026-05-09 11:25 47.24211 -1.90744 27932 ft 267 kts 331°
2026-05-09 11:25 47.25928 -1.91751 27929 ft 264 kts 331°
2026-05-09 11:26 47.27626 -1.92744 27932 ft 263 kts 330°
2026-05-09 11:26 47.29330 -1.93740 27930 ft 264 kts 330°
2026-05-09 11:26 47.31039 -1.94736 27929 ft 265 kts 331°
2026-05-09 11:26 47.32750 -1.95733 27929 ft 266 kts 331°
2026-05-09 11:27 47.34478 -1.96741 27929 ft 267 kts 331°
2026-05-09 11:27 47.36196 -1.97743 27931 ft 267 kts 330°
2026-05-09 11:27 47.37942 -1.98758 27935 ft 268 kts 331°
2026-05-09 11:27 47.39674 -1.99764 27933 ft 268 kts 331°
2026-05-09 11:28 47.41412 -2.00772 27935 ft 268 kts 330°
2026-05-09 11:28 47.43041 -2.01795 27938 ft 267 kts 328°
2026-05-09 11:28 47.44723 -2.02941 27940 ft 266 kts 327°
2026-05-09 11:28 47.46406 -2.04104 27942 ft 266 kts 327°
2026-05-09 11:29 47.48084 -2.05266 27940 ft 266 kts 327°
2026-05-09 11:29 47.49761 -2.06425 27942 ft 266 kts 327°
2026-05-09 11:29 47.51436 -2.07580 27946 ft 266 kts 327°
2026-05-09 11:29 47.53116 -2.08735 27944 ft 266 kts 327°
2026-05-09 11:30 47.54799 -2.09893 27944 ft 266 kts 327°
2026-05-09 11:30 47.56481 -2.11048 27948 ft 266 kts 327°
2026-05-09 11:30 47.58161 -2.12202 27951 ft 266 kts 326°
2026-05-09 11:30 47.59827 -2.13407 27954 ft 266 kts 325°
2026-05-09 11:31 47.61473 -2.14627 27954 ft 265 kts 324°
2026-05-09 11:31 47.63125 -2.15853 27954 ft 266 kts 324°
2026-05-09 11:31 47.64780 -2.17079 27953 ft 266 kts 325°
2026-05-09 11:31 47.66439 -2.18307 27956 ft 266 kts 324°
2026-05-09 11:32 47.68027 -2.19661 27959 ft 261 kts 318°
2026-05-09 11:32 47.69529 -2.21179 27956 ft 260 kts 316°
2026-05-09 11:32 47.71009 -2.22725 27955 ft 260 kts 316°
2026-05-09 11:32 47.72482 -2.24243 27955 ft 261 kts 317°
2026-05-09 11:33 47.73994 -2.25741 27962 ft 261 kts 318°
2026-05-09 11:33 47.75528 -2.27204 27963 ft 263 kts 320°
2026-05-09 11:33 47.78672 -2.30003 27960 ft 264 kts 321°
2026-05-09 11:34 47.80246 -2.31399 27965 ft 263 kts 321°
2026-05-09 11:34 47.81823 -2.32804 27964 ft 264 kts 321°
2026-05-09 11:34 47.83397 -2.34208 27966 ft 264 kts 321°
2026-05-09 11:34 47.84946 -2.35595 27968 ft 263 kts 321°
2026-05-09 11:35 47.86535 -2.37027 27969 ft 263 kts 321°
2026-05-09 11:35 47.88102 -2.38447 27965 ft 264 kts 321°
2026-05-09 11:35 47.89669 -2.39871 27967 ft 263 kts 321°
2026-05-09 11:35 47.91215 -2.41284 27960 ft 264 kts 321°
2026-05-09 11:36 47.92775 -2.42719 27961 ft 264 kts 321°
2026-05-09 11:36 47.94356 -2.44179 27966 ft 264 kts 321°
2026-05-09 11:36 47.95893 -2.45605 27959 ft 264 kts 321°
2026-05-09 11:36 47.97453 -2.47059 27961 ft 264 kts 321°
2026-05-09 11:37 47.99012 -2.48519 27961 ft 264 kts 321°
2026-05-09 11:37 48.00562 -2.49978 27965 ft 264 kts 321°
2026-05-09 11:37 48.02119 -2.51437 27962 ft 265 kts 322°
2026-05-09 11:37 48.03718 -2.52806 27965 ft 266 kts 324°
2026-05-09 11:38 48.05342 -2.54148 27961 ft 266 kts 325°
2026-05-09 11:38 48.06964 -2.55485 27966 ft 266 kts 325°
2026-05-09 11:38 48.08581 -2.56825 27962 ft 266 kts 325°
2026-05-09 11:38 48.10186 -2.58159 27959 ft 267 kts 325°
2026-05-09 11:39 48.11829 -2.59465 27968 ft 267 kts 327°
2026-05-09 11:39 48.13477 -2.60750 27960 ft 267 kts 327°
2026-05-09 11:39 48.15128 -2.62037 27967 ft 268 kts 327°
2026-05-09 11:40 48.18423 -2.64626 27968 ft 267 kts 327°
2026-05-09 11:40 48.20069 -2.65927 27960 ft 267 kts 327°
2026-05-09 11:40 48.21704 -2.67228 27968 ft 267 kts 327°
2026-05-09 11:40 48.22820 -2.68118 27969 ft 268 kts 327°
2026-05-09 11:41 48.24441 -2.69415 27972 ft 267 kts 327°
2026-05-09 11:41 48.26083 -2.70737 27977 ft 267 kts 327°
2026-05-09 11:41 48.27716 -2.72058 27978 ft 267 kts 327°
2026-05-09 11:41 48.29352 -2.73388 27984 ft 267 kts 327°
2026-05-09 11:42 48.30986 -2.74723 27989 ft 267 kts 327°
2026-05-09 11:42 48.32619 -2.76064 27991 ft 267 kts 327°
2026-05-09 11:42 48.34251 -2.77411 27993 ft 268 kts 327°
2026-05-09 11:42 48.35882 -2.78760 27994 ft 268 kts 327°
2026-05-09 11:43 48.37513 -2.80115 27994 ft 268 kts 327°
2026-05-09 11:43 48.39148 -2.81476 27999 ft 268 kts 327°
2026-05-09 11:43 48.40784 -2.82812 27999 ft 268 kts 328°
2026-05-09 11:43 48.42427 -2.84140 27998 ft 268 kts 328°
2026-05-09 11:44 48.44053 -2.85455 27999 ft 268 kts 328°
2026-05-09 11:44 48.45694 -2.86785 28002 ft 268 kts 328°
2026-05-09 11:44 48.47339 -2.88119 28000 ft 268 kts 328°
2026-05-09 11:44 48.48982 -2.89453 28002 ft 268 kts 328°
2026-05-09 11:45 48.50623 -2.90792 28002 ft 268 kts 328°
2026-05-09 11:45 48.52259 -2.92129 28003 ft 268 kts 328°
2026-05-09 11:45 48.53876 -2.93454 28001 ft 268 kts 328°
2026-05-09 11:45 48.55515 -2.94800 28000 ft 268 kts 328°
2026-05-09 11:46 48.57153 -2.96149 28004 ft 268 kts 328°
2026-05-09 11:46 48.58796 -2.97501 27998 ft 268 kts 328°
2026-05-09 11:46 48.60435 -2.98854 27999 ft 269 kts 328°
2026-05-09 11:46 48.62072 -3.00207 28001 ft 269 kts 328°
2026-05-09 11:47 48.63712 -3.01562 27999 ft 269 kts 328°
2026-05-09 11:47 48.65352 -3.02917 27999 ft 269 kts 328°
2026-05-09 11:47 48.66996 -3.04277 27999 ft 269 kts 328°
2026-05-09 11:47 48.68648 -3.05641 27999 ft 269 kts 328°
2026-05-09 11:48 48.70294 -3.07002 27999 ft 269 kts 328°
2026-05-09 11:48 48.71935 -3.08359 28001 ft 269 kts 328°
2026-05-09 11:48 48.73579 -3.09718 28001 ft 269 kts 328°
2026-05-09 11:48 48.75222 -3.11077 28002 ft 269 kts 328°
2026-05-09 11:49 48.76826 -3.12404 27997 ft 269 kts 328°
2026-05-09 11:49 48.78473 -3.13764 28000 ft 269 kts 328°
2026-05-09 11:49 48.80123 -3.15123 28001 ft 269 kts 328°
2026-05-09 11:49 48.81771 -3.16481 28005 ft 269 kts 328°
2026-05-09 11:50 48.83421 -3.17841 28003 ft 269 kts 328°
2026-05-09 11:50 48.85069 -3.19198 28004 ft 269 kts 328°
2026-05-09 11:50 48.86720 -3.20557 28007 ft 270 kts 328°
2026-05-09 11:50 48.88373 -3.21918 28006 ft 270 kts 328°
2026-05-09 11:51 48.90024 -3.23274 28003 ft 270 kts 328°
2026-05-09 11:51 48.91676 -3.24628 28008 ft 270 kts 328°
2026-05-09 11:51 48.93327 -3.25983 28004 ft 270 kts 328°
2026-05-09 11:51 48.94981 -3.27337 28007 ft 270 kts 328°
2026-05-09 11:52 48.96616 -3.28674 28010 ft 270 kts 328°
2026-05-09 11:52 48.98274 -3.30027 28007 ft 270 kts 328°
2026-05-09 11:52 48.99934 -3.31380 28012 ft 270 kts 328°
2026-05-09 11:52 49.01594 -3.32730 28013 ft 270 kts 328°
2026-05-09 11:53 49.03257 -3.34081 28010 ft 270 kts 328°
2026-05-09 11:53 49.04923 -3.35432 28010 ft 272 kts 328°
2026-05-09 11:53 49.06597 -3.36790 28011 ft 273 kts 328°
2026-05-09 11:53 49.08277 -3.38154 28014 ft 274 kts 328°
2026-05-09 11:54 49.09956 -3.39516 28014 ft 274 kts 328°
2026-05-09 11:54 49.11639 -3.40879 28020 ft 274 kts 328°
2026-05-09 11:54 49.13323 -3.42240 28020 ft 274 kts 328°
2026-05-09 11:54 49.15008 -3.43601 28017 ft 274 kts 328°
2026-05-09 11:55 49.16696 -3.44960 28020 ft 274 kts 328°
2026-05-09 11:56 49.25118 -3.51734 28021 ft 274 kts 328°
2026-05-09 11:56 49.26807 -3.53088 28025 ft 274 kts 328°
2026-05-09 11:56 49.28498 -3.54441 28028 ft 274 kts 328°
2026-05-09 11:57 49.30190 -3.55797 28026 ft 274 kts 328°
2026-05-09 11:57 49.31878 -3.57152 28031 ft 274 kts 328°
2026-05-09 11:57 49.33564 -3.58507 28030 ft 274 kts 328°
2026-05-09 11:57 49.35250 -3.59864 28025 ft 274 kts 328°
2026-05-09 11:58 49.36935 -3.61223 28029 ft 273 kts 328°
2026-05-09 11:58 49.38619 -3.62584 28030 ft 273 kts 328°
2026-05-09 11:58 49.40301 -3.63945 28030 ft 273 kts 328°
2026-05-09 11:58 49.41981 -3.65307 28033 ft 273 kts 328°
2026-05-09 11:59 49.43662 -3.66673 28036 ft 273 kts 328°
2026-05-09 11:59 49.45319 -3.68021 28036 ft 273 kts 328°
2026-05-09 11:59 49.46998 -3.69389 28038 ft 273 kts 328°
2026-05-09 11:59 49.48677 -3.70760 28038 ft 272 kts 328°
2026-05-09 12:00 49.50349 -3.72127 28042 ft 272 kts 328°
2026-05-09 12:00 49.52021 -3.73496 28032 ft 272 kts 328°
2026-05-09 12:00 49.53695 -3.74867 28035 ft 272 kts 328°
2026-05-09 12:00 49.55363 -3.76238 28035 ft 272 kts 328°
2026-05-09 12:01 49.57034 -3.77615 28036 ft 272 kts 328°
2026-05-09 12:01 49.58701 -3.78995 28046 ft 272 kts 328°
2026-05-09 12:01 49.60365 -3.80380 28044 ft 272 kts 328°
2026-05-09 12:01 49.62024 -3.81766 28046 ft 272 kts 328°
2026-05-09 12:02 49.63685 -3.83157 28041 ft 271 kts 328°
2026-05-09 12:02 49.65348 -3.84556 28048 ft 271 kts 328°
2026-05-09 12:02 49.67007 -3.85955 28050 ft 271 kts 328°
2026-05-09 12:02 49.68641 -3.87339 28046 ft 271 kts 328°
2026-05-09 12:03 49.70300 -3.88746 28049 ft 271 kts 328°
2026-05-09 12:03 49.71958 -3.90154 28053 ft 272 kts 328°
2026-05-09 12:03 49.73612 -3.91564 28050 ft 272 kts 328°
2026-05-09 12:03 49.75269 -3.92980 28053 ft 272 kts 328°
2026-05-09 12:04 49.76923 -3.94396 28053 ft 272 kts 328°
2026-05-09 12:04 49.78579 -3.95818 28054 ft 272 kts 328°
2026-05-09 12:04 49.80236 -3.97244 28055 ft 272 kts 328°
2026-05-09 12:04 49.81891 -3.98671 28054 ft 272 kts 328°
2026-05-09 12:05 49.83541 -4.00099 28056 ft 272 kts 328°
2026-05-09 12:05 49.85196 -4.01535 28054 ft 272 kts 328°
2026-05-09 12:05 49.86852 -4.02973 28057 ft 272 kts 328°
2026-05-09 12:05 49.88483 -4.04391 28057 ft 272 kts 328°
2026-05-09 12:06 49.90136 -4.05831 28057 ft 272 kts 328°
2026-05-09 12:06 49.91790 -4.07275 28056 ft 273 kts 328°
2026-05-09 12:06 49.93441 -4.08722 28057 ft 273 kts 328°
2026-05-09 12:06 49.95091 -4.10172 28057 ft 273 kts 328°
2026-05-09 12:07 49.96741 -4.11628 28060 ft 273 kts 328°
2026-05-09 12:07 49.98390 -4.13085 28061 ft 273 kts 328°
2026-05-09 12:07 50.00042 -4.14548 28064 ft 273 kts 328°
2026-05-09 12:07 50.01693 -4.16013 28062 ft 273 kts 328°
2026-05-09 12:08 50.03249 -4.17394 28062 ft 273 kts 328°
2026-05-09 12:08 50.04900 -4.18866 28063 ft 273 kts 328°
2026-05-09 12:08 50.06548 -4.20339 28062 ft 273 kts 328°
2026-05-09 12:08 50.08195 -4.21814 28064 ft 273 kts 328°
2026-05-09 12:09 50.09841 -4.23289 28061 ft 273 kts 328°
2026-05-09 12:09 50.11487 -4.24770 28060 ft 273 kts 328°
2026-05-09 12:09 50.13131 -4.26252 28062 ft 273 kts 328°
2026-05-09 12:10 50.18051 -4.30709 28067 ft 272 kts 328°
2026-05-09 12:10 50.19685 -4.32197 28063 ft 272 kts 328°
2026-05-09 12:10 50.21322 -4.33690 28064 ft 272 kts 328°
2026-05-09 12:11 50.22956 -4.35183 28067 ft 272 kts 328°
2026-05-09 12:11 50.24588 -4.36675 28066 ft 272 kts 328°
2026-05-09 12:11 50.26194 -4.38146 28065 ft 271 kts 328°
2026-05-09 12:11 50.27823 -4.39638 28066 ft 271 kts 328°
2026-05-09 12:12 50.29453 -4.41129 28062 ft 271 kts 328°
2026-05-09 12:12 50.31080 -4.42617 28065 ft 271 kts 328°
2026-05-09 12:12 50.32712 -4.44110 28063 ft 271 kts 328°
2026-05-09 12:12 50.34339 -4.45599 28064 ft 271 kts 328°
2026-05-09 12:13 50.35966 -4.47089 28064 ft 271 kts 328°
2026-05-09 12:13 50.37597 -4.48581 28070 ft 271 kts 328°
2026-05-09 12:13 50.39229 -4.50074 28064 ft 272 kts 328°
2026-05-09 12:13 50.40866 -4.51572 28064 ft 272 kts 328°
2026-05-09 12:14 50.42503 -4.53070 28066 ft 272 kts 328°
2026-05-09 12:14 50.44144 -4.54573 28069 ft 273 kts 328°
2026-05-09 12:14 50.45790 -4.56077 28071 ft 274 kts 328°
2026-05-09 12:14 50.47415 -4.57559 28074 ft 275 kts 328°
2026-05-09 12:15 50.49074 -4.59072 28075 ft 275 kts 328°
2026-05-09 12:15 50.50739 -4.60591 28072 ft 277 kts 328°
2026-05-09 12:15 50.52410 -4.62118 28075 ft 279 kts 328°
2026-05-09 12:15 50.54089 -4.63654 28076 ft 280 kts 328°
2026-05-09 12:16 50.55782 -4.65204 28073 ft 281 kts 328°
2026-05-09 12:16 50.57476 -4.66757 28073 ft 283 kts 328°
2026-05-09 12:16 50.59179 -4.68317 28078 ft 283 kts 328°
2026-05-09 12:16 50.60883 -4.69882 28075 ft 283 kts 328°
2026-05-09 12:17 50.62569 -4.71430 28074 ft 284 kts 328°
2026-05-09 12:17 50.64275 -4.72997 28074 ft 284 kts 328°
2026-05-09 12:17 50.65985 -4.74571 28075 ft 284 kts 328°
2026-05-09 12:17 50.67692 -4.76147 28076 ft 284 kts 328°
2026-05-09 12:18 50.69402 -4.77726 28081 ft 284 kts 328°
2026-05-09 12:18 50.71107 -4.79302 28080 ft 284 kts 328°
2026-05-09 12:18 50.72812 -4.80877 28079 ft 284 kts 328°
2026-05-09 12:18 50.74517 -4.82452 28083 ft 284 kts 328°
2026-05-09 12:19 50.76221 -4.84027 28081 ft 284 kts 328°
2026-05-09 12:19 50.77929 -4.85608 28086 ft 284 kts 328°
2026-05-09 12:19 50.79631 -4.87186 28087 ft 284 kts 328°
2026-05-09 12:19 50.81335 -4.88766 28087 ft 284 kts 328°
2026-05-09 12:20 50.83037 -4.90344 28085 ft 284 kts 328°
2026-05-09 12:20 50.84743 -4.91930 28089 ft 284 kts 328°
2026-05-09 12:20 50.86423 -4.93492 28089 ft 284 kts 328°
2026-05-09 12:20 50.88128 -4.95078 28088 ft 284 kts 328°
2026-05-09 12:21 50.89828 -4.96664 28089 ft 284 kts 328°
2026-05-09 12:21 50.91527 -4.98251 28094 ft 284 kts 328°
2026-05-09 12:21 50.93227 -4.99839 28095 ft 284 kts 328°
2026-05-09 12:21 50.94927 -5.01430 28094 ft 284 kts 328°
2026-05-09 12:22 50.96627 -5.03019 28095 ft 284 kts 328°
2026-05-09 12:22 50.98329 -5.04613 28098 ft 284 kts 328°
2026-05-09 12:22 51.00029 -5.06209 28101 ft 284 kts 328°
2026-05-09 12:22 51.01728 -5.07802 28101 ft 284 kts 328°
2026-05-09 12:23 51.03427 -5.09396 28099 ft 284 kts 328°
2026-05-09 12:23 51.05132 -5.10995 28105 ft 284 kts 328°
2026-05-09 12:23 51.06831 -5.12589 28102 ft 284 kts 328°
2026-05-09 12:23 51.08528 -5.14184 28104 ft 284 kts 328°
2026-05-09 12:24 51.10231 -5.15786 28108 ft 284 kts 328°
2026-05-09 12:24 51.11930 -5.17382 28109 ft 283 kts 328°
2026-05-09 12:24 51.13059 -5.18443 28111 ft 283 kts 328°
2026-05-09 12:24 51.14756 -5.20037 28110 ft 283 kts 328°
2026-05-09 12:25 51.16455 -5.21633 28110 ft 283 kts 328°
2026-05-09 12:25 51.18155 -5.23231 28113 ft 283 kts 328°
2026-05-09 12:25 51.19851 -5.24824 28113 ft 283 kts 328°
2026-05-09 12:25 51.21553 -5.26425 28111 ft 283 kts 328°
2026-05-09 12:26 51.23251 -5.28022 28115 ft 283 kts 328°
2026-05-09 12:26 51.24947 -5.29619 28114 ft 283 kts 328°
2026-05-09 12:26 51.26642 -5.31214 28117 ft 283 kts 328°
2026-05-09 12:26 51.28343 -5.32813 28117 ft 283 kts 328°
2026-05-09 12:27 51.30043 -5.34407 28118 ft 283 kts 328°
2026-05-09 12:27 51.31744 -5.35998 28120 ft 283 kts 328°
2026-05-09 12:27 51.33445 -5.37584 28119 ft 283 kts 328°
2026-05-09 12:27 51.35126 -5.39150 28119 ft 283 kts 328°
2026-05-09 12:28 51.36834 -5.40736 28124 ft 283 kts 328°
2026-05-09 12:28 51.38542 -5.42318 28124 ft 284 kts 328°
2026-05-09 12:28 51.40251 -5.43897 28124 ft 284 kts 328°
2026-05-09 12:28 51.41963 -5.45477 28124 ft 284 kts 328°
2026-05-09 12:29 51.43680 -5.47055 28125 ft 284 kts 328°
2026-05-09 12:29 51.45396 -5.48627 28128 ft 284 kts 328°
2026-05-09 12:29 51.47113 -5.50197 28131 ft 284 kts 327°
2026-05-09 12:29 51.48834 -5.51770 28130 ft 284 kts 328°
2026-05-09 12:30 51.50554 -5.53341 28130 ft 284 kts 328°
2026-05-09 12:30 51.52272 -5.54915 28131 ft 284 kts 328°
2026-05-09 12:30 51.55684 -5.58058 28138 ft 284 kts 328°
2026-05-09 12:31 51.57396 -5.59633 28142 ft 284 kts 328°
2026-05-09 12:31 51.60826 -5.62789 28145 ft 284 kts 328°
2026-05-09 12:31 51.62536 -5.64364 28149 ft 284 kts 328°
2026-05-09 12:32 51.64250 -5.65942 28150 ft 283 kts 328°
2026-05-09 12:32 51.65958 -5.67519 28150 ft 283 kts 328°
2026-05-09 12:32 51.67669 -5.69097 28155 ft 283 kts 328°
2026-05-09 12:32 51.69379 -5.70675 28159 ft 283 kts 328°
2026-05-09 12:33 51.71087 -5.72251 28157 ft 282 kts 328°
2026-05-09 12:33 51.72786 -5.73805 28156 ft 282 kts 327°
2026-05-09 12:33 51.74506 -5.75377 28164 ft 282 kts 328°
2026-05-09 12:33 51.76208 -5.76944 28163 ft 282 kts 328°
2026-05-09 12:34 51.77910 -5.78513 28161 ft 281 kts 328°
2026-05-09 12:34 51.79611 -5.80081 28161 ft 281 kts 328°
2026-05-09 12:34 51.81310 -5.81646 28167 ft 281 kts 328°
2026-05-09 12:34 51.83011 -5.83213 28168 ft 281 kts 328°
2026-05-09 12:35 51.84692 -5.84758 28168 ft 281 kts 327°
2026-05-09 12:35 51.86395 -5.86322 28174 ft 281 kts 328°
2026-05-09 12:35 51.88096 -5.87886 28173 ft 281 kts 328°
2026-05-09 12:35 51.89799 -5.89450 28173 ft 281 kts 328°
2026-05-09 12:36 51.91501 -5.91011 28173 ft 281 kts 328°
2026-05-09 12:36 51.93203 -5.92566 28174 ft 281 kts 328°
2026-05-09 12:36 51.94908 -5.94120 28176 ft 281 kts 328°
2026-05-09 12:36 51.96615 -5.95676 28179 ft 281 kts 328°
2026-05-09 12:37 51.98321 -5.97225 28181 ft 281 kts 327°
2026-05-09 12:37 52.00033 -5.98774 28180 ft 281 kts 328°
2026-05-09 12:37 52.01744 -6.00323 28177 ft 281 kts 328°
2026-05-09 12:37 52.03454 -6.01866 28180 ft 281 kts 328°
2026-05-09 12:38 52.05167 -6.03412 28181 ft 281 kts 328°
2026-05-09 12:38 52.06876 -6.04956 28185 ft 281 kts 328°
2026-05-09 12:38 52.08565 -6.06482 28186 ft 281 kts 328°
2026-05-09 12:38 52.10278 -6.08026 28189 ft 281 kts 328°
2026-05-09 12:39 52.11990 -6.09566 28186 ft 281 kts 328°
2026-05-09 12:39 52.13706 -6.11105 28188 ft 281 kts 328°
2026-05-09 12:39 52.15421 -6.12639 28188 ft 281 kts 328°
2026-05-09 12:39 52.17144 -6.14174 28191 ft 281 kts 328°
2026-05-09 12:40 52.18864 -6.15704 28191 ft 281 kts 327°
2026-05-09 12:40 52.20583 -6.17231 28195 ft 281 kts 328°
2026-05-09 12:40 52.22305 -6.18751 28193 ft 281 kts 327°
2026-05-09 12:40 52.24029 -6.20265 28194 ft 281 kts 328°
2026-05-09 12:41 52.25753 -6.21778 28195 ft 281 kts 328°
2026-05-09 12:41 52.27478 -6.23288 28197 ft 281 kts 328°
2026-05-09 12:41 52.29201 -6.24796 28194 ft 281 kts 328°
2026-05-09 12:41 52.30923 -6.26306 28198 ft 281 kts 328°
2026-05-09 12:42 52.32651 -6.27810 28204 ft 281 kts 327°
2026-05-09 12:42 52.34377 -6.29310 28202 ft 281 kts 327°
2026-05-09 12:42 52.36105 -6.30806 28199 ft 280 kts 328°
2026-05-09 12:42 52.37831 -6.32302 28202 ft 280 kts 328°
2026-05-09 12:43 52.39534 -6.33775 28204 ft 280 kts 328°
2026-05-09 12:43 52.41259 -6.35256 28205 ft 280 kts 328°
2026-05-09 12:43 52.42988 -6.36736 28202 ft 280 kts 328°
2026-05-09 12:43 52.44719 -6.38216 28204 ft 280 kts 328°
2026-05-09 12:44 52.46446 -6.39693 28208 ft 280 kts 328°
2026-05-09 12:44 52.48176 -6.41170 28202 ft 280 kts 327°
2026-05-09 12:44 52.49908 -6.42648 28204 ft 280 kts 327°
2026-05-09 12:44 52.51636 -6.44126 28203 ft 280 kts 328°
2026-05-09 12:45 52.53365 -6.45599 28204 ft 280 kts 328°
2026-05-09 12:45 52.55094 -6.47071 28208 ft 279 kts 328°
2026-05-09 12:45 52.56822 -6.48545 28206 ft 280 kts 328°
2026-05-09 12:45 52.58552 -6.50018 28209 ft 280 kts 328°
2026-05-09 12:46 52.60285 -6.51495 28210 ft 280 kts 327°
2026-05-09 12:46 52.61991 -6.52951 28206 ft 280 kts 328°
2026-05-09 12:46 52.63719 -6.54418 28212 ft 280 kts 328°
2026-05-09 12:46 52.65450 -6.55891 28211 ft 280 kts 328°
2026-05-09 12:47 52.67174 -6.57358 28210 ft 280 kts 328°
2026-05-09 12:47 52.68908 -6.58832 28211 ft 280 kts 328°
2026-05-09 12:47 52.70694 -6.60156 28196 ft 283 kts 337°
2026-05-09 12:47 52.72616 -6.60921 28193 ft 288 kts 353°
2026-05-09 12:48 52.74619 -6.60514 28200 ft 293 kts 11°
2026-05-09 12:48 52.76573 -6.59562 28197 ft 293 kts 15°
2026-05-09 12:48 52.78515 -6.58519 28205 ft 293 kts 15°
2026-05-09 12:48 52.80451 -6.57457 28210 ft 293 kts 16°
2026-05-09 12:49 52.82382 -6.56390 28209 ft 293 kts 16°
2026-05-09 12:49 52.84314 -6.55318 28213 ft 293 kts 16°
2026-05-09 12:49 52.86237 -6.54249 28211 ft 293 kts 15°
2026-05-09 12:49 52.87989 -6.53250 28198 ft 235 kts 16°
2026-05-09 12:50 52.89366 -6.52428 28163 ft 187 kts 16°
2026-05-09 12:50 52.90503 -6.51724 27749 ft 168 kts 18°
2026-05-09 12:50 52.91609 -6.51167 24985 ft 223 kts
2026-05-09 12:50 52.93230 -6.50761 23593 ft 224 kts 354°
2026-05-09 12:51 52.94760 -6.50720 22657 ft 205 kts 356°
2026-05-09 12:51 52.96090 -6.50475 21979 ft 183 kts
2026-05-09 12:51 52.97347 -6.50099 20855 ft 196 kts
2026-05-09 12:51 52.98766 -6.49304 20101 ft 225 kts 33°
2026-05-09 12:52 53.00068 -6.47855 20219 ft 233 kts 28°
2026-05-09 12:52 53.01479 -6.46468 20276 ft 241 kts 24°
2026-05-09 12:52 53.02991 -6.45075 20269 ft 255 kts 24°
2026-05-09 12:52 53.04574 -6.43581 20266 ft 267 kts 25°
2026-05-09 12:53 53.06209 -6.42021 20274 ft 275 kts 25°
2026-05-09 12:53 53.07892 -6.40415 20280 ft 283 kts 25°
2026-05-09 12:53 53.09630 -6.38763 20287 ft 290 kts 25°
2026-05-09 12:53 53.11408 -6.37077 20296 ft 298 kts 25°
2026-05-09 12:54 53.13229 -6.35359 20293 ft 304 kts 25°
2026-05-09 12:54 53.15077 -6.33617 20294 ft 308 kts 25°
2026-05-09 12:54 53.16957 -6.31846 20296 ft 311 kts 25°
2026-05-09 12:54 53.18847 -6.30067 20299 ft 313 kts 25°
2026-05-09 12:55 53.20754 -6.28270 20293 ft 315 kts 25°
2026-05-09 12:55 53.22642 -6.26486 20295 ft 316 kts 25°
2026-05-09 12:55 53.24586 -6.24646 20294 ft 317 kts 25°
2026-05-09 12:55 53.26480 -6.22850 20298 ft 318 kts 25°
2026-05-09 12:56 53.28405 -6.21019 20294 ft 318 kts 25°
2026-05-09 12:56 53.30334 -6.19183 20296 ft 319 kts 25°
2026-05-09 12:56 53.32257 -6.17349 20302 ft 319 kts 25°
2026-05-09 12:56 53.34186 -6.15508 20298 ft 319 kts 25°
2026-05-09 12:57 53.36119 -6.13661 20298 ft 319 kts 25°
2026-05-09 12:57 53.38050 -6.11813 20299 ft 319 kts 25°
2026-05-09 12:57 53.39982 -6.09962 20296 ft 319 kts 25°
2026-05-09 12:57 53.41908 -6.08117 20299 ft 320 kts 25°
2026-05-09 12:58 53.43832 -6.06273 20295 ft 320 kts 25°
2026-05-09 12:58 53.45775 -6.04408 20298 ft 320 kts 25°
2026-05-09 12:58 53.47682 -6.02574 20298 ft 320 kts 25°
2026-05-09 12:58 53.49643 -6.00689 20295 ft 320 kts 25°
2026-05-09 12:59 53.51574 -5.98833 20295 ft 320 kts 25°
2026-05-09 12:59 53.53483 -5.96994 20303 ft 320 kts 25°
2026-05-09 12:59 53.55466 -5.95326 20299 ft 317 kts 17°
2026-05-09 12:59 53.57531 -5.94022 20301 ft 316 kts 14°
2026-05-09 13:00 53.59615 -5.92803 20293 ft 316 kts 13°
2026-05-09 13:00 53.61701 -5.91604 20299 ft 317 kts 13°
2026-05-09 13:00 53.63785 -5.90407 20300 ft 317 kts 13°
2026-05-09 13:00 53.65872 -5.89208 20302 ft 317 kts 13°
2026-05-09 13:01 53.67961 -5.88008 20305 ft 317 kts 13°
2026-05-09 13:01 53.70047 -5.86808 20305 ft 317 kts 13°
2026-05-09 13:01 53.72142 -5.85604 20305 ft 317 kts 13°
2026-05-09 13:01 53.74233 -5.84401 20309 ft 317 kts 13°
2026-05-09 13:02 53.76302 -5.83208 20305 ft 317 kts 13°
2026-05-09 13:02 53.78391 -5.82004 20305 ft 317 kts 13°
2026-05-09 13:02 53.80484 -5.80797 20307 ft 317 kts 13°
2026-05-09 13:02 53.82574 -5.79589 20304 ft 317 kts 13°
2026-05-09 13:03 53.84663 -5.78381 20308 ft 317 kts 13°
2026-05-09 13:03 53.86756 -5.77171 20307 ft 317 kts 13°
2026-05-09 13:03 53.88842 -5.75963 20310 ft 318 kts 13°
2026-05-09 13:03 53.90940 -5.74745 20309 ft 318 kts 13°
2026-05-09 13:04 53.93031 -5.73529 20311 ft 317 kts 13°
2026-05-09 13:04 53.95107 -5.72318 20309 ft 313 kts 13°
2026-05-09 13:04 53.97162 -5.71115 20305 ft 310 kts 13°
2026-05-09 13:04 53.99196 -5.69919 20308 ft 308 kts 13°
2026-05-09 13:05 54.01111 -5.68765 19889 ft 272 kts 14°
2026-05-09 13:05 54.02814 -5.67701 19271 ft 251 kts 14°
2026-05-09 13:05 54.04406 -5.66689 18655 ft 238 kts 13°
2026-05-09 13:05 54.05981 -5.65701 18008 ft 255 kts 13°
2026-05-09 13:06 54.07698 -5.64663 17328 ft 267 kts 14°
2026-05-09 13:06 54.09468 -5.63622 16673 ft 270 kts 14°
2026-05-09 13:06 54.11247 -5.62596 16033 ft 270 kts 13°
2026-05-09 13:06 54.13027 -5.61584 15410 ft 269 kts 13°
2026-05-09 13:07 54.14803 -5.60582 14801 ft 269 kts 13°
2026-05-09 13:07 54.16593 -5.59582 14192 ft 270 kts 13°
2026-05-09 13:07 54.17770 -5.58927 13761 ft 269 kts 13°
2026-05-09 13:07 54.19545 -5.57945 13092 ft 267 kts 14°
2026-05-09 13:08 54.21306 -5.56971 12440 ft 264 kts 13°
2026-05-09 13:08 54.23045 -5.56019 11801 ft 261 kts 13°
2026-05-09 13:08 54.24720 -5.55102 11191 ft 259 kts 14°
2026-05-09 13:08 54.26433 -5.54178 10570 ft 256 kts 14°
2026-05-09 13:09 54.28123 -5.53589 9943 ft 230 kts
2026-05-09 13:09 54.29626 -5.53353 9262 ft 205 kts
2026-05-09 13:09 54.31003 -5.53175 8597 ft 192 kts
2026-05-09 13:09 54.32309 -5.53027 7946 ft 184 kts
2026-05-09 13:10 54.33558 -5.52910 7315 ft 179 kts
2026-05-09 13:10 54.34786 -5.52827 6690 ft 175 kts
2026-05-09 13:10 54.35995 -5.52776 6041 ft 172 kts
2026-05-09 13:10 54.37182 -5.52775 5395 ft 169 kts
2026-05-09 13:11 54.38341 -5.52824 4737 ft 164 kts
2026-05-09 13:11 54.39458 -5.52896 4084 ft 158 kts
2026-05-09 13:11 54.40544 -5.52994 3443 ft 154 kts
2026-05-09 13:11 54.41607 -5.53081 2815 ft 155 kts 360°
2026-05-09 13:12 54.42666 -5.53140 2148 ft 149 kts 360°
2026-05-09 13:12 54.43694 -5.53180 1494 ft 147 kts
2026-05-09 13:12 54.44694 -5.53186 989 ft 136 kts 360°
2026-05-09 13:12 54.45555 -5.53165 1253 ft 123 kts
2026-05-09 13:13 54.46413 -5.53172 1619 ft 125 kts 359°
2026-05-09 13:13 54.47305 -5.53126 1976 ft 131 kts
2026-05-09 13:13 54.48229 -5.53130 2320 ft 137 kts
2026-05-09 13:13 54.49271 -5.53169 2261 ft 160 kts 354°
2026-05-09 13:14 54.50267 -5.54129 2287 ft 180 kts 313°
2026-05-09 13:14 54.50593 -5.56238 2280 ft 198 kts 272°
2026-05-09 13:16 54.49815 -5.69283 2205 ft 107 kts 340°
2026-05-09 13:16 54.50431 -5.69836 2058 ft 98 kts 342°
2026-05-09 13:16 54.51030 -5.70350 1970 ft 93 kts 339°
2026-05-09 13:16 54.51643 -5.70884 1795 ft 103 kts 342°
2026-05-09 13:17 54.52271 -5.71360 1670 ft 96 kts 340°
2026-05-09 13:17 54.52884 -5.71838 1491 ft 98 kts 341°
2026-05-09 13:17 54.53538 -5.72163 1281 ft 97 kts 351°
2026-05-09 13:17 54.54189 -5.72393 1092 ft 97 kts 355°
2026-05-09 13:18 54.54856 -5.72391 1034 ft 96 kts
2026-05-09 13:18 54.55478 -5.72108 969 ft 86 kts 28°
2026-05-09 13:18 54.55874 -5.71526 651 ft 68 kts 30°
2026-05-09 13:18 54.56265 -5.71053 443 ft 67 kts 27°
2026-05-09 13:19 54.56711 -5.70610 387 ft 77 kts 27°
2026-05-09 13:19 54.57170 -5.70136 256 ft 75 kts 27°
2026-05-09 13:19 54.57636 -5.69682 67 ft 75 kts 31°
2026-05-09 13:19 54.57980 -5.69320 6 ft 32 kts 29°
2026-05-09 13:20 54.58068 -5.69234 6 ft 7 kts 30°
2026-05-09 13:20 54.58128 -5.69172 5 ft 14 kts 31°
2026-05-09 13:20 54.58235 -5.69064 7 ft 20 kts 30°
2026-05-09 13:20 54.58359 -5.68938 8 ft 22 kts 31°
2026-05-09 13:21 54.58430 -5.68865 7 ft 13 kts 30°
2026-05-09 13:21 54.58533 -5.68758 5 ft 20 kts 34°
2026-05-09 13:21 54.58596 -5.68642 6 ft 14 kts 123°
2026-05-09 13:21 54.58502 -5.68479 7 ft 10 kts 157°
2026-05-09 13:22 54.58470 -5.68495 7 ft 0 kts 138°
2026-05-09 13:22 54.58470 -5.68490 7 ft 1 kts 69°
2026-05-09 13:22 54.58471 -5.68486 8 ft 0 kts 62°